• In Lithuania
  • List of Countries
  • For 7 days
  • Water Temperature
  • Satellite Maps
  • Weather Map
  • Weather Widgets
  • user-avatar
    Login

    Hourly Weather Saurimo

    Today, 23 October, Tuesday

    Time Temperature Precipitation Wind Pressure Humidity
    00:00 +22°C° 0 mm 1 mps 670 mmHg 78%
    01:00 +21°C° 0 mm 1 mps 670 mmHg 80%
    02:00 +21°C° 0 mm 1 mps 670 mmHg 82%
    03:00 +21°C° 0 mm 1 mps 670 mmHg 83%
    04:00 +21°C° 0 mm 1 mps 670 mmHg 85%
    05:00 +21°C° 0.1 mm 2 mps 671 mmHg 80%
    06:00 +22°C° 0.1 mm 3 mps 671 mmHg 76%
    07:00 +24°C° 0.1 mm 3 mps 672 mmHg 72%
    08:00 +26°C° 0 mm 3 mps 672 mmHg 64%
    09:00 +28°C° 0 mm 3 mps 673 mmHg 55%
    10:00 +30°C° 0 mm 3 mps 673 mmHg 47%
    11:00 +30°C° 0 mm 3 mps 673 mmHg 44%
    12:00 +31°C° 0 mm 3 mps 672 mmHg 41%
    13:00 +31°C° 0 mm 3 mps 671 mmHg 39%
    14:00 +31°C° 0 mm 2 mps 671 mmHg 40%
    15:00 +31°C° 0 mm 2 mps 671 mmHg 42%
    16:00 +30°C° 0 mm 1 mps 670 mmHg 43%
    17:00 +29°C° 0 mm 1 mps 671 mmHg 48%
    18:00 +27°C° 0 mm 1 mps 671 mmHg 52%
    19:00 +23°C° 0 mm 0 mps 671 mmHg 56%
    20:00 +24°C° 0.2 mm 1 mps 671 mmHg 62%
    21:00 +24°C° 0.2 mm 1 mps 671 mmHg 69%
    22:00 +23°C° 0.2 mm 1 mps 671 mmHg 75%
    23:00 +22°C° 0.4 mm 1 mps 671 mmHg 80%

    Tomorrow, 24 October, Wednesday

    Time Temperature Precipitation Wind Pressure Humidity
    00:00 +21°C° 0.4 mm 1 mps 671 mmHg 85%
    01:00 +20°C° 0.4 mm 2 mps 670 mmHg 90%
    02:00 +20°C° 0.2 mm 2 mps 670 mmHg 91%
    03:00 +19°C° 0.2 mm 2 mps 670 mmHg 93%
    04:00 +19°C° 0.2 mm 2 mps 670 mmHg 94%
    05:00 +20°C° 0.2 mm 2 mps 670 mmHg 90%
    06:00 +21°C° 0.2 mm 3 mps 671 mmHg 86%
    07:00 +21°C° 0.2 mm 3 mps 672 mmHg 82%
    08:00 +25°C° 0 mm 3 mps 672 mmHg 69%
    09:00 +28°C° 0 mm 4 mps 672 mmHg 57%
    10:00 +30°C° 0 mm 4 mps 673 mmHg 45%
    11:00 +31°C° 0 mm 3 mps 672 mmHg 43%
    12:00 +31°C° 0 mm 2 mps 671 mmHg 41%
    13:00 +32°C° 0 mm 2 mps 670 mmHg 39%
    14:00 +31°C° 0 mm 2 mps 670 mmHg 41%
    15:00 +31°C° 0 mm 2 mps 670 mmHg 42%
    16:00 +30°C° 0 mm 2 mps 669 mmHg 43%
    17:00 +29°C° 0 mm 1 mps 669 mmHg 47%
    18:00 +27°C° 0 mm 1 mps 670 mmHg 52%
    19:00 +26°C° 0 mm 1 mps 670 mmHg 56%
    20:00 +25°C° 0 mm 1 mps 670 mmHg 59%
    21:00 +24°C° 0 mm 1 mps 670 mmHg 61%
    22:00 +23°C° 0 mm 1 mps 670 mmHg 64%
    23:00 +21°C° 0.2 mm 2 mps 670 mmHg 71%

    Day after tomorrow, 25 October, Thursday

    Time Temperature Precipitation Wind Pressure Humidity
    00:00 +21°C° 0.2 mm 2 mps 669 mmHg 78%
    01:00 +20°C° 0.2 mm 2 mps 669 mmHg 85%
    02:00 +19°C° 0.3 mm 2 mps 669 mmHg 86%
    03:00 +19°C° 0.3 mm 2 mps 669 mmHg 87%
    04:00 +19°C° 0.3 mm 2 mps 669 mmHg 88%
    05:00 +20°C° 0 mm 2 mps 669 mmHg 82%
    06:00 +20°C° 0 mm 3 mps 670 mmHg 75%
    07:00 +21°C° 0 mm 4 mps 671 mmHg 69%
    08:00 +26°C° 0 mm 3 mps 671 mmHg 56%
    09:00 +29°C° 0 mm 3 mps 672 mmHg 44%
    10:00 +33°C° 0 mm 3 mps 672 mmHg 31%
    11:00 +34°C° 0 mm 3 mps 671 mmHg 29%
    12:00 +35°C° 0 mm 3 mps 671 mmHg 27%
    13:00 +36°C° 0 mm 2 mps 670 mmHg 25%
    14:00 +35°C° 0 mm 2 mps 670 mmHg 27%
    15:00 +35°C° 0 mm 2 mps 669 mmHg 29%
    16:00 +33°C° 0 mm 1 mps 669 mmHg 31%
    17:00 +30°C° 0 mm 1 mps 669 mmHg 36%
    18:00 +28°C° 0 mm 1 mps 669 mmHg 41%
    19:00 +24°C° 0 mm 0 mps 669 mmHg 46%
    20:00 +25°C° 0 mm 1 mps 670 mmHg 49%
    21:00 +25°C° 0 mm 1 mps 670 mmHg 52%
    22:00 +24°C° 0 mm 1 mps 670 mmHg 54%
    23:00 +23°C° 0.1 mm 1 mps 670 mmHg 61%

    26 October, Friday

    Time Temperature Precipitation Wind Pressure Humidity
    00:00 +22°C° 0.1 mm 1 mps 670 mmHg 67%
    01:00 +21°C° 0.1 mm 1 mps 669 mmHg 73%
    02:00 +21°C° 0 mm 1 mps 669 mmHg 75%
    03:00 +20°C° 0 mm 1 mps 669 mmHg 77%
    04:00 +20°C° 0 mm 1 mps 669 mmHg 79%
    05:00 +22°C° 0 mm 1 mps 670 mmHg 74%
    06:00 +23°C° 0 mm 1 mps 671 mmHg 69%
    07:00 +25°C° 0 mm 1 mps 672 mmHg 64%
    08:00 +28°C° 0 mm 1 mps 672 mmHg 52%
    09:00 +31°C° 0 mm 2 mps 672 mmHg 41%
    10:00 +35°C° 0 mm 2 mps 673 mmHg 29%
    11:00 +35°C° 0 mm 2 mps 672 mmHg 29%
    12:00 +35°C° 0 mm 2 mps 671 mmHg 29%
    13:00 +34°C° 0 mm 2 mps 670 mmHg 29%
    14:00 +34°C° 0 mm 2 mps 670 mmHg 30%
    15:00 +33°C° 0 mm 1 mps 670 mmHg 31%
    16:00 +33°C° 0 mm 1 mps 670 mmHg 32%
    17:00 +31°C° 0 mm 1 mps 670 mmHg 36%
    18:00 +29°C° 0 mm 1 mps 670 mmHg 41%
    19:00 +27°C° 0 mm 1 mps 670 mmHg 45%
    20:00 +26°C° 0 mm 1 mps 670 mmHg 50%
    21:00 +24°C° 0 mm 1 mps 670 mmHg 55%
    22:00 +23°C° 0 mm 1 mps 670 mmHg 60%
    23:00 +23°C° 0 mm 1 mps 670 mmHg 62%

    27 October, Saturday

    Time Temperature Precipitation Wind Pressure Humidity
    00:00 +20°C° 0 mm 0 mps 669 mmHg 64%
    01:00 +20°C° 0 mm 0 mps 669 mmHg 67%
    02:00 +22°C° 0.2 mm 1 mps 669 mmHg 69%
    03:00 +21°C° 0.2 mm 1 mps 669 mmHg 72%
    04:00 +21°C° 0.2 mm 1 mps 670 mmHg 74%
    05:00 +22°C° 0.5 mm 1 mps 670 mmHg 74%
    06:00 +23°C° 0.5 mm 1 mps 671 mmHg 74%
    07:00 +24°C° 0.5 mm 1 mps 672 mmHg 74%
    08:00 +27°C° 0 mm 1 mps 672 mmHg 60%
    09:00 +30°C° 0 mm 1 mps 673 mmHg 47%
    10:00 +35°C° 0 mm 2 mps 673 mmHg 34%
    11:00 +35°C° 0 mm 2 mps 672 mmHg 33%
    12:00 +35°C° 0 mm 2 mps 671 mmHg 32%
    13:00 +35°C° 0 mm 2 mps 670 mmHg 31%
    14:00 +35°C° 0 mm 2 mps 670 mmHg 32%
    15:00 +35°C° 0 mm 2 mps 669 mmHg 33%
    16:00 +35°C° 0 mm 2 mps 669 mmHg 33%
    17:00 +31°C° 0 mm 2 mps 669 mmHg 39%
    18:00 +29°C° 0 mm 1 mps 670 mmHg 44%
    19:00 +27°C° 0 mm 1 mps 670 mmHg 49%
    20:00 +26°C° 0 mm 1 mps 670 mmHg 51%
    21:00 +24°C° 0 mm 0 mps 670 mmHg 53%
    22:00 +23°C° 0 mm 0 mps 670 mmHg 55%
    23:00 +22°C° 0 mm 0 mps 669 mmHg 58%

    28 October, Sunday

    Time Temperature Precipitation Wind Pressure Humidity
    00:00 +22°C° 0 mm 0 mps 669 mmHg 60%
    01:00 +21°C° 0 mm 0 mps 668 mmHg 62%
    02:00 +23°C° 0 mm 1 mps 668 mmHg 63%
    03:00 +23°C° 0 mm 1 mps 668 mmHg 65%
    04:00 +22°C° 0 mm 1 mps 668 mmHg 67%
    05:00 +24°C° 0 mm 1 mps 669 mmHg 62%
    06:00 +26°C° 0 mm 1 mps 670 mmHg 57%
    07:00 +26°C° 0 mm 0 mps 671 mmHg 53%
    08:00 +30°C° 0 mm 1 mps 672 mmHg 46%
    09:00 +33°C° 0 mm 1 mps 672 mmHg 39%
    10:00 +37°C° 0 mm 2 mps 672 mmHg 32%
    11:00 +36°C° 0 mm 2 mps 671 mmHg 32%
    12:00 +36°C° 0 mm 2 mps 670 mmHg 32%
    13:00 +36°C° 0 mm 2 mps 669 mmHg 32%
    14:00 +35°C° 0 mm 2 mps 669 mmHg 33%
    15:00 +35°C° 0 mm 2 mps 668 mmHg 34%
    16:00 +34°C° 0 mm 2 mps 668 mmHg 36%
    17:00 +31°C° 0 mm 2 mps 669 mmHg 41%
    18:00 +30°C° 0 mm 2 mps 669 mmHg 47%
    19:00 +28°C° 0 mm 2 mps 670 mmHg 52%
    20:00 +26°C° 0.7 mm 2 mps 670 mmHg 63%
    21:00 +25°C° 0.7 mm 2 mps 669 mmHg 73%
    22:00 +23°C° 0.7 mm 2 mps 669 mmHg 83%
    23:00 +23°C° 0.9 mm 2 mps 669 mmHg 86%
    Show more